ASA49 KCMH-KLGA

Flight info

Callsign ASA49
Flight time 1h 13m
Altitude 31000
Route RDBUV WWSHR SPYDY Q186 WEVEL ETG MIP4
Aircraft B737/M-SDE2E3FGHIRWXY/LB1

Departure

Time 2026-05-08 23:58
Airport John Glenn Columbus International Airport (KCMH)

Arrival

Time 2026-05-09 01:11
Airport LaGuardia Airport (KLGA)
Time Latitude Longitude Altitude Speed Heading
2026-05-08 23:31 39.99656 -82.88663 820 ft 0 kts 20°
2026-05-08 23:46 39.99641 -82.88675 817 ft 3 kts 62°
2026-05-08 23:47 39.99638 -82.88693 815 ft 0 kts 101°
2026-05-08 23:52 39.99637 -82.88691 815 ft 3 kts 101°
2026-05-08 23:52 39.99612 -82.88641 816 ft 7 kts 127°
2026-05-08 23:52 39.99596 -82.88580 818 ft 8 kts 96°
2026-05-08 23:52 39.99592 -82.88488 816 ft 12 kts 93°
2026-05-08 23:53 39.99592 -82.88391 817 ft 9 kts 81°
2026-05-08 23:53 39.99613 -82.88296 815 ft 12 kts 81°
2026-05-08 23:53 39.99613 -82.88193 813 ft 11 kts 94°
2026-05-08 23:53 39.99607 -82.88100 819 ft 10 kts 94°
2026-05-08 23:54 39.99603 -82.88018 821 ft 11 kts 95°
2026-05-08 23:54 39.99625 -82.87925 821 ft 10 kts 32°
2026-05-08 23:54 39.99708 -82.87909 822 ft 14 kts
2026-05-08 23:55 39.99920 -82.87911 821 ft 20 kts 333°
2026-05-08 23:55 39.99991 -82.87948 819 ft 0 kts
2026-05-08 23:55 39.99999 -82.87947 819 ft 0 kts
2026-05-08 23:55 40.00001 -82.87947 819 ft 3 kts
2026-05-08 23:56 40.00037 -82.87945 818 ft 4 kts
2026-05-08 23:56 40.00048 -82.87944 814 ft 0 kts
2026-05-08 23:56 40.00085 -82.87942 816 ft 12 kts
2026-05-08 23:56 40.00148 -82.87961 817 ft 6 kts 320°
2026-05-08 23:57 40.00159 -82.87987 819 ft 0 kts 288°
2026-05-08 23:57 40.00166 -82.88036 819 ft 29 kts 276°
2026-05-08 23:57 40.00203 -82.88638 823 ft 102 kts 276°
2026-05-08 23:57 40.00258 -82.89832 838 ft 160 kts 270°
2026-05-08 23:58 40.00256 -82.91402 1270 ft 188 kts 266°
2026-05-08 23:58 40.00124 -82.93166 2006 ft 192 kts 261°
2026-05-08 23:58 40.00051 -82.94756 3446 ft 162 kts 267°
2026-05-08 23:58 40.00134 -82.96229 4362 ft 166 kts 274°
2026-05-08 23:59 40.00336 -82.97778 4998 ft 183 kts 274°
2026-05-08 23:59 40.00500 -82.99551 5242 ft 213 kts 270°
2026-05-08 23:59 40.00699 -83.01720 4900 ft 267 kts 276°
2026-05-08 23:59 40.01060 -83.04162 5793 ft 269 kts 278°
2026-05-09 00:00 40.01473 -83.06325 7848 ft 221 kts 281°
2026-05-09 00:00 40.01885 -83.08075 9693 ft 191 kts 281°
2026-05-09 00:00 40.02272 -83.09818 9895 ft 224 kts 279°
2026-05-09 00:00 40.02625 -83.12074 8724 ft 277 kts 276°
2026-05-09 00:01 40.02981 -83.14514 8995 ft 253 kts 277°
2026-05-09 00:01 40.03347 -83.16686 9238 ft 248 kts 279°
2026-05-09 00:01 40.03727 -83.18920 9421 ft 251 kts 278°
2026-05-09 00:01 40.04111 -83.21148 10258 ft 253 kts 280°
2026-05-09 00:02 40.04593 -83.23355 11180 ft 254 kts 283°
2026-05-09 00:02 40.04998 -83.25660 11637 ft 263 kts 278°
2026-05-09 00:02 40.04959 -83.28021 12095 ft 262 kts 255°
2026-05-09 00:02 40.04169 -83.30160 12625 ft 262 kts 249°
2026-05-09 00:03 40.03800 -83.32453 13007 ft 259 kts 269°
2026-05-09 00:03 40.04153 -83.34749 13021 ft 263 kts 294°
2026-05-09 00:03 40.05325 -83.36629 13026 ft 275 kts 316°
2026-05-09 00:03 40.07076 -83.37738 13009 ft 290 kts 341°
2026-05-09 00:04 40.09134 -83.37736 13000 ft 308 kts
2026-05-09 00:04 40.11205 -83.36530 13018 ft 350 kts 30°
2026-05-09 00:04 40.13034 -83.34168 13013 ft 390 kts 49°
2026-05-09 00:04 40.14580 -83.31208 12990 ft 396 kts 54°
2026-05-09 00:05 40.16059 -83.28154 12989 ft 398 kts 54°
2026-05-09 00:05 40.17524 -83.25088 13089 ft 394 kts 54°
2026-05-09 00:05 40.18968 -83.22043 13755 ft 396 kts 54°
2026-05-09 00:05 40.20363 -83.18900 14296 ft 405 kts 60°
2026-05-09 00:06 40.21595 -83.15550 14863 ft 411 kts 62°
2026-05-09 00:06 40.22793 -83.12136 15427 ft 415 kts 62°
2026-05-09 00:06 40.23991 -83.08685 15996 ft 418 kts 63°
2026-05-09 00:06 40.25174 -83.05256 16572 ft 420 kts 63°
2026-05-09 00:07 40.26390 -83.01717 17176 ft 422 kts 63°
2026-05-09 00:07 40.27593 -82.98205 17779 ft 425 kts 63°
2026-05-09 00:07 40.28810 -82.94647 18389 ft 431 kts 63°
2026-05-09 00:07 40.30025 -82.91093 18930 ft 436 kts 63°
2026-05-09 00:08 40.31290 -82.87468 19480 ft 439 kts 59°
2026-05-09 00:08 40.32742 -82.83945 20049 ft 441 kts 56°
2026-05-09 00:08 40.34267 -82.80434 20625 ft 445 kts 56°
2026-05-09 00:08 40.35815 -82.76902 21209 ft 448 kts 56°
2026-05-09 00:09 40.37376 -82.73351 21805 ft 452 kts 55°
2026-05-09 00:09 40.39074 -82.69900 22372 ft 447 kts 42°
2026-05-09 00:09 40.41445 -82.67323 22596 ft 441 kts 20°
2026-05-09 00:09 40.44292 -82.66097 22902 ft 423 kts 358°
2026-05-09 00:10 40.47166 -82.66228 22922 ft 408 kts 342°
2026-05-09 00:10 40.50027 -82.66416 22886 ft 424 kts 359°
2026-05-09 00:10 40.52923 -82.65464 23159 ft 434 kts 11°
2026-05-09 00:10 40.55740 -82.63977 23619 ft 444 kts 18°
2026-05-09 00:11 40.58490 -82.61980 23974 ft 455 kts 22°
2026-05-09 00:11 40.61237 -82.59870 24387 ft 460 kts 22°
2026-05-09 00:11 40.64008 -82.57730 24837 ft 462 kts 22°
2026-05-09 00:11 40.66793 -82.55602 25304 ft 464 kts 21°
2026-05-09 00:12 40.69599 -82.53485 25757 ft 466 kts 21°
2026-05-09 00:12 40.72427 -82.51374 26207 ft 468 kts 21°
2026-05-09 00:12 40.75269 -82.49265 26652 ft 469 kts 20°
2026-05-09 00:12 40.78125 -82.47153 27088 ft 472 kts 20°
2026-05-09 00:13 40.80993 -82.45035 27518 ft 473 kts 20°
2026-05-09 00:13 40.83872 -82.42907 27945 ft 475 kts 20°
2026-05-09 00:13 40.86765 -82.40766 28329 ft 478 kts 20°
2026-05-09 00:13 40.89673 -82.38611 28715 ft 481 kts 20°
2026-05-09 00:14 40.92588 -82.36445 29180 ft 481 kts 20°
2026-05-09 00:14 40.95500 -82.34277 29732 ft 479 kts 20°
2026-05-09 00:14 40.98402 -82.32111 30242 ft 478 kts 20°
2026-05-09 00:14 41.01295 -82.29953 30645 ft 478 kts 19°
2026-05-09 00:15 41.04199 -82.27787 30927 ft 480 kts 19°
2026-05-09 00:15 41.10058 -82.23416 30914 ft 483 kts 19°
2026-05-09 00:16 41.15866 -82.19059 30912 ft 477 kts 19°
2026-05-09 00:16 41.21660 -82.14716 30916 ft 479 kts 19°
2026-05-09 00:17 41.27473 -82.10347 30915 ft 481 kts 19°
2026-05-09 00:17 41.32988 -82.05121 30909 ft 507 kts 41°
2026-05-09 00:17 41.35026 -82.01230 30898 ft 519 kts 58°
2026-05-09 00:18 41.36250 -81.96692 30904 ft 524 kts 74°
2026-05-09 00:18 41.37871 -81.87286 30895 ft 526 kts 73°
2026-05-09 00:19 41.39696 -81.77830 30896 ft 529 kts 72°
2026-05-09 00:19 41.41590 -81.68341 30886 ft 531 kts 71°
2026-05-09 00:20 41.43473 -81.58821 30897 ft 532 kts 72°
2026-05-09 00:20 41.45337 -81.49274 30893 ft 532 kts 72°
2026-05-09 00:21 41.47187 -81.39736 30903 ft 530 kts 72°
2026-05-09 00:21 41.49025 -81.30226 30904 ft 531 kts 72°
2026-05-09 00:22 41.50569 -81.22211 30916 ft 543 kts 73°
2026-05-09 00:22 41.51433 -81.12045 30909 ft 559 kts 91°
2026-05-09 00:23 41.50609 -81.01750 30908 ft 558 kts 98°
2026-05-09 00:23 41.49574 -80.91506 30906 ft 557 kts 98°
2026-05-09 00:24 41.48593 -80.81268 30913 ft 556 kts 97°
2026-05-09 00:24 41.47665 -80.71033 30921 ft 556 kts 97°
2026-05-09 00:25 41.46746 -80.60805 30916 ft 556 kts 97°
2026-05-09 00:25 41.45812 -80.50565 30925 ft 556 kts 97°
2026-05-09 00:26 41.44864 -80.40323 30923 ft 557 kts 97°
2026-05-09 00:26 41.43906 -80.30077 30928 ft 558 kts 97°
2026-05-09 00:27 41.42935 -80.19812 30921 ft 559 kts 97°
2026-05-09 00:27 41.41958 -80.09608 30946 ft 559 kts 97°
2026-05-09 00:28 41.40964 -79.99320 30941 ft 560 kts 97°
2026-05-09 00:28 41.39961 -79.89017 30947 ft 561 kts 97°
2026-05-09 00:29 41.38948 -79.78720 30951 ft 561 kts 97°
2026-05-09 00:29 41.37924 -79.68402 30941 ft 562 kts 98°
2026-05-09 00:30 41.36892 -79.58084 30939 ft 562 kts 98°
2026-05-09 00:30 41.35849 -79.47761 30948 ft 563 kts 98°
2026-05-09 00:31 41.34797 -79.37434 30947 ft 563 kts 98°
2026-05-09 00:31 41.33734 -79.27112 30946 ft 563 kts 98°
2026-05-09 00:32 41.32662 -79.16792 30941 ft 563 kts 98°
2026-05-09 00:32 41.31580 -79.06462 30933 ft 564 kts 98°
2026-05-09 00:33 41.30488 -78.96142 30934 ft 564 kts 98°
2026-05-09 00:33 41.29387 -78.85830 30938 ft 563 kts 98°
2026-05-09 00:34 41.28278 -78.75519 30943 ft 563 kts 98°
2026-05-09 00:34 41.27161 -78.65213 30944 ft 563 kts 98°
2026-05-09 00:35 41.26033 -78.54902 30937 ft 564 kts 98°
2026-05-09 00:35 41.24896 -78.44600 30946 ft 563 kts 98°
2026-05-09 00:36 41.23754 -78.34328 30940 ft 562 kts 98°
2026-05-09 00:36 41.22604 -78.24074 30953 ft 561 kts 99°
2026-05-09 00:37 41.21453 -78.13887 30949 ft 561 kts 99°
2026-05-09 00:37 41.20218 -78.03649 30940 ft 561 kts 100°
2026-05-09 00:38 41.18928 -77.93442 30964 ft 561 kts 100°
2026-05-09 00:38 41.17635 -77.83226 30941 ft 559 kts 100°
2026-05-09 00:39 41.16348 -77.73055 30949 ft 559 kts 100°
2026-05-09 00:39 41.15057 -77.62891 30945 ft 559 kts 100°
2026-05-09 00:40 41.13755 -77.52719 30600 ft 559 kts 100°
2026-05-09 00:40 41.13101 -77.47636 30270 ft 559 kts 99°
2026-05-09 00:40 41.12443 -77.42546 29760 ft 559 kts 99°
2026-05-09 00:41 41.11133 -77.32462 28683 ft 548 kts 99°
2026-05-09 00:41 41.10486 -77.27506 28180 ft 544 kts 99°
2026-05-09 00:41 41.09849 -77.22643 27667 ft 542 kts 99°
2026-05-09 00:41 41.09201 -77.17719 27164 ft 541 kts 100°
2026-05-09 00:42 41.08553 -77.12806 26672 ft 540 kts 100°
2026-05-09 00:42 41.07904 -77.07909 26199 ft 539 kts 100°
2026-05-09 00:42 41.07255 -77.03027 25720 ft 537 kts 100°
2026-05-09 00:42 41.06607 -76.98159 25257 ft 536 kts 100°
2026-05-09 00:43 41.05958 -76.93307 24794 ft 534 kts 100°
2026-05-09 00:43 41.05309 -76.88471 24346 ft 532 kts 100°
2026-05-09 00:43 41.04661 -76.83658 23904 ft 529 kts 100°
2026-05-09 00:43 41.04016 -76.78885 23457 ft 525 kts 100°
2026-05-09 00:44 41.03375 -76.74148 22929 ft 519 kts 100°
2026-05-09 00:44 41.02743 -76.69492 22537 ft 509 kts 100°
2026-05-09 00:44 41.02076 -76.64928 22164 ft 502 kts 104°
2026-05-09 00:44 41.01151 -76.60504 21788 ft 495 kts 108°
2026-05-09 00:45 41.00080 -76.56214 21418 ft 486 kts 110°
2026-05-09 00:45 40.98983 -76.52022 21052 ft 478 kts 110°
2026-05-09 00:45 40.97915 -76.47895 20694 ft 471 kts 110°
2026-05-09 00:45 40.96887 -76.43801 20345 ft 466 kts 109°
2026-05-09 00:46 40.95893 -76.39741 20006 ft 462 kts 109°
2026-05-09 00:46 40.94919 -76.35707 19651 ft 459 kts 109°
2026-05-09 00:46 40.93955 -76.31706 19309 ft 455 kts 109°
2026-05-09 00:46 40.92996 -76.27734 18940 ft 452 kts 109°
2026-05-09 00:47 40.92038 -76.23787 18559 ft 449 kts 109°
2026-05-09 00:47 40.91084 -76.19869 18166 ft 445 kts 109°
2026-05-09 00:47 40.90139 -76.16001 17655 ft 438 kts 109°
2026-05-09 00:47 40.89209 -76.12198 17143 ft 431 kts 109°
2026-05-09 00:48 40.88296 -76.08466 16641 ft 424 kts 109°
2026-05-09 00:48 40.87406 -76.04836 16154 ft 418 kts 109°
2026-05-09 00:48 40.86516 -76.01209 15684 ft 412 kts 109°
2026-05-09 00:48 40.85638 -75.97635 15235 ft 406 kts 109°
2026-05-09 00:49 40.84771 -75.94112 14780 ft 401 kts 109°
2026-05-09 00:49 40.83911 -75.90625 14347 ft 397 kts 109°
2026-05-09 00:49 40.83062 -75.87180 13919 ft 393 kts 109°
2026-05-09 00:49 40.82218 -75.83767 13447 ft 389 kts 109°
2026-05-09 00:50 40.81383 -75.80388 13019 ft 387 kts 110°
2026-05-09 00:50 40.80544 -75.77005 13012 ft 389 kts 109°
2026-05-09 00:50 40.79699 -75.73603 12997 ft 390 kts 109°
2026-05-09 00:50 40.78855 -75.70212 12971 ft 389 kts 109°
2026-05-09 00:51 40.78013 -75.66827 12978 ft 389 kts 109°
2026-05-09 00:51 40.77168 -75.63440 12962 ft 389 kts 109°
2026-05-09 00:51 40.76323 -75.60055 12972 ft 388 kts 109°
2026-05-09 00:51 40.75476 -75.56672 12977 ft 389 kts 109°
2026-05-09 00:52 40.74628 -75.53284 12971 ft 389 kts 110°
2026-05-09 00:52 40.73780 -75.49899 12969 ft 389 kts 110°
2026-05-09 00:52 40.72928 -75.46511 12959 ft 389 kts 110°
2026-05-09 00:52 40.72127 -75.43102 12947 ft 390 kts 107°
2026-05-09 00:53 40.71427 -75.39635 12597 ft 392 kts 105°
2026-05-09 00:53 40.70765 -75.36157 12324 ft 389 kts 105°
2026-05-09 00:53 40.70109 -75.32717 12038 ft 386 kts 105°
2026-05-09 00:53 40.69448 -75.29311 11751 ft 382 kts 106°
2026-05-09 00:54 40.68787 -75.25961 11459 ft 372 kts 106°
2026-05-09 00:54 40.68139 -75.22709 11174 ft 363 kts 107°
2026-05-09 00:54 40.67502 -75.19533 10889 ft 354 kts 107°
2026-05-09 00:54 40.66867 -75.16433 10609 ft 346 kts 111°
2026-05-09 00:55 40.65790 -75.13698 10311 ft 331 kts 133°
2026-05-09 00:55 40.64283 -75.11463 10077 ft 323 kts 139°
2026-05-09 00:55 40.62761 -75.09366 9998 ft 311 kts 140°
2026-05-09 00:55 40.61294 -75.07330 9987 ft 303 kts 139°
2026-05-09 00:56 40.59848 -75.05300 9996 ft 307 kts 139°
2026-05-09 00:56 40.58365 -75.03209 10004 ft 316 kts 139°
2026-05-09 00:56 40.56915 -75.01002 9977 ft 324 kts 127°
2026-05-09 00:56 40.55958 -74.98308 9996 ft 325 kts 115°
2026-05-09 00:57 40.55168 -74.95575 9980 ft 323 kts 114°
2026-05-09 00:57 40.54381 -74.92814 9974 ft 322 kts 114°
2026-05-09 00:57 40.53590 -74.90073 9970 ft 320 kts 115°
2026-05-09 00:57 40.52792 -74.87350 9968 ft 319 kts 115°
2026-05-09 00:58 40.51989 -74.84641 9971 ft 318 kts 115°
2026-05-09 00:58 40.51184 -74.81941 9971 ft 318 kts 115°
2026-05-09 00:58 40.50373 -74.79235 9977 ft 319 kts 116°
2026-05-09 00:58 40.49557 -74.76520 9975 ft 320 kts 116°
2026-05-09 00:59 40.48739 -74.73799 9979 ft 321 kts 116°
2026-05-09 00:59 40.47916 -74.71065 9984 ft 322 kts 116°
2026-05-09 00:59 40.47093 -74.68331 9975 ft 322 kts 116°
2026-05-09 00:59 40.46268 -74.65594 9977 ft 323 kts 116°
2026-05-09 01:00 40.45440 -74.62848 9972 ft 324 kts 116°
2026-05-09 01:00 40.44611 -74.60101 9974 ft 324 kts 116°
2026-05-09 01:00 40.43779 -74.57353 9995 ft 324 kts 116°
2026-05-09 01:00 40.43178 -74.54492 9980 ft 329 kts 96°
2026-05-09 01:01 40.43409 -74.51569 9982 ft 315 kts 72°
2026-05-09 01:01 40.44094 -74.48880 9740 ft 309 kts 69°
2026-05-09 01:01 40.44819 -74.46259 9440 ft 301 kts 69°
2026-05-09 01:01 40.45532 -74.43713 9075 ft 292 kts 69°
2026-05-09 01:02 40.46212 -74.41261 8729 ft 280 kts 69°
2026-05-09 01:02 40.46862 -74.38896 8399 ft 272 kts 69°
2026-05-09 01:02 40.47495 -74.36574 8051 ft 269 kts 69°
2026-05-09 01:02 40.48119 -74.34273 7731 ft 266 kts 69°
2026-05-09 01:03 40.48735 -74.31991 7394 ft 264 kts 69°
2026-05-09 01:03 40.49347 -74.29715 7103 ft 264 kts 69°
2026-05-09 01:03 40.49960 -74.27430 7048 ft 266 kts 69°
2026-05-09 01:03 40.50572 -74.25146 7035 ft 265 kts 69°
2026-05-09 01:04 40.51183 -74.22863 7034 ft 265 kts 69°
2026-05-09 01:04 40.51793 -74.20581 7026 ft 265 kts 69°
2026-05-09 01:04 40.52405 -74.18289 6810 ft 269 kts 69°
2026-05-09 01:04 40.53252 -74.16135 6416 ft 261 kts 48°
2026-05-09 01:05 40.54414 -74.14368 6039 ft 252 kts 43°
2026-05-09 01:05 40.55596 -74.12717 5646 ft 245 kts 42°
2026-05-09 01:05 40.57897 -74.09453 4899 ft 242 kts 44°
2026-05-09 01:06 40.59023 -74.07817 4509 ft 240 kts 44°
2026-05-09 01:06 40.60135 -74.06182 4144 ft 239 kts 45°
2026-05-09 01:06 40.61233 -74.04555 3765 ft 237 kts 45°
2026-05-09 01:06 40.62317 -74.02940 3393 ft 235 kts 46°
2026-05-09 01:07 40.63390 -74.01336 2997 ft 231 kts 46°
2026-05-09 01:07 40.64437 -73.99768 2618 ft 226 kts 46°
2026-05-09 01:07 40.65441 -73.98262 2640 ft 214 kts 46°
2026-05-09 01:07 40.66524 -73.96850 2708 ft 224 kts 33°
2026-05-09 01:08 40.67825 -73.95696 2712 ft 227 kts 30°
2026-05-09 01:08 40.69156 -73.94588 2591 ft 227 kts 28°
2026-05-09 01:08 40.70416 -73.93346 2409 ft 226 kts 43°
2026-05-09 01:08 40.71474 -73.91850 2362 ft 222 kts 49°
2026-05-09 01:09 40.72105 -73.89997 2287 ft 225 kts 77°
2026-05-09 01:09 40.72443 -73.87951 1907 ft 231 kts 77°
2026-05-09 01:09 40.72786 -73.85930 1372 ft 221 kts 76°
2026-05-09 01:09 40.73468 -73.84212 910 ft 205 kts 43°
2026-05-09 01:10 40.74572 -73.83286 665 ft 184 kts 16°
2026-05-09 01:10 40.75785 -73.83357 490 ft 165 kts 337°
2026-05-09 01:10 40.76564 -73.84309 402 ft 160 kts 302°
2026-05-09 01:10 40.77143 -73.85555 106 ft 156 kts 299°
2026-05-09 01:11 40.77654 -73.86640 17 ft 112 kts 302°
2026-05-09 01:11 40.77958 -73.87255 18 ft 48 kts 301°
2026-05-09 01:11 40.77993 -73.87335 18 ft 7 kts 298°
2026-05-09 01:11 40.78019 -73.87433 16 ft 9 kts 248°
2026-05-09 01:12 40.77957 -73.87456 18 ft 15 kts 183°
2026-05-09 01:12 40.77876 -73.87477 19 ft 25 kts 204°